2015-08-01, 07:32:04,VALID,918.191,VALID,0,VALID,97.6483,VALID,75.746,VALID,19.6263,VALID,270,VALID,0,
2015-08-01, 07:33:04,VALID,918.196,VALID,0,VALID,97.5569,VALID,79.6139,VALID,19.6653,VALID,270,VALID,0,
2015-08-01, 07:34:04,VALID,918.221,VALID,0,VALID,97.6331,VALID,83.3743,VALID,19.6623,VALID,270,VALID,0,
2015-08-01, 07:35:04,VALID,918.263,VALID,0,VALID,97.7856,VALID,87.0273,VALID,19.7223,VALID,270,VALID,0,
2015-08-01, 07:36:04,VALID,918.326,VALID,0,VALID,98.0752,VALID,90.6803,VALID,19.7403,VALID,270,VALID,0,
2015-08-01, 07:37:04,VALID,918.309,VALID,0,VALID,98.2048,VALID,94.1184,VALID,19.7403,VALID,270,VALID,0,
2015-08-01, 07:38:04,VALID,918.346,VALID,0,VALID,98.1134,VALID,96.9119,VALID,19.7808,VALID,270,VALID,0,
2015-08-01, 07:39:04,VALID,918.372,VALID,0,VALID,98.0905,VALID,99.0607,VALID,19.7808,VALID,270,VALID,0,
2015-08-01, 07:40:04,VALID,918.416,VALID,0,VALID,98.2201,VALID,100.887,VALID,19.8183,VALID,270,VALID,0,
2015-08-01, 07:41:04,VALID,918.427,VALID,0,VALID,98.3726,VALID,102.069,VALID,19.8573,VALID,270,VALID,0,
2015-08-01, 07:42:04,VALID,918.441,VALID,0,VALID,98.0295,VALID,101.747,VALID,19.8783,VALID,270,VALID,0,
2015-08-01, 07:43:04,VALID,918.438,VALID,0,VALID,97.8923,VALID,100.78,VALID,19.8783,VALID,270,VALID,0,
2015-08-01, 07:44:04,VALID,918.464,VALID,0,VALID,97.595,VALID,99.9203,VALID,19.9173,VALID,270,VALID,0,
2015-08-01, 07:45:04,VALID,918.503,VALID,0,VALID,97.1757,VALID,99.2756,VALID,19.9548,VALID,270,VALID,0,
2015-08-01, 07:46:04,VALID,918.521,VALID,0,VALID,96.8479,VALID,99.0607,VALID,20.0523,VALID,270,VALID,0,
2015-08-01, 07:47:04,VALID,918.535,VALID,0,VALID,96.5201,VALID,99.8128,VALID,20.1123,VALID,270,VALID,0,
2015-08-01, 07:48:04,VALID,918.567,VALID,0,VALID,96.1694,VALID,100.887,VALID,20.1708,VALID,270,VALID,0,
2015-08-01, 07:49:04,VALID,918.563,VALID,0,VALID,95.3613,VALID,101.21,VALID,20.1513,VALID,270,VALID,0,
2015-08-01, 07:50:04,VALID,918.593,VALID,0,VALID,95.59,VALID,100.672,VALID,20.1903,VALID,270,VALID,0,
2015-08-01, 07:51:04,VALID,918.587,VALID,0,VALID,96.1846,VALID,99.0607,VALID,20.2293,VALID,270,VALID,0,
2015-08-01, 07:52:04,VALID,918.595,VALID,0,VALID,96.5887,VALID,96.5896,VALID,20.2684,VALID,284,VALID,0,
2015-08-01, 07:53:04,VALID,918.582,VALID,0,VALID,96.1846,VALID,93.4738,VALID,20.2684,VALID,318,VALID,0,
2015-08-01, 07:54:04,VALID,918.576,VALID,0,VALID,94.7972,VALID,90.7878,VALID,20.2489,VALID,318,VALID,0,
2015-08-01, 07:55:04,VALID,918.595,VALID,0,VALID,95.1707,VALID,88.9613,VALID,20.2489,VALID,318,VALID,0,
2015-08-01, 07:56:04,VALID,918.622,VALID,0,VALID,95.8568,VALID,87.8869,VALID,20.2879,VALID,321,VALID,0,
2015-08-01, 07:57:04,VALID,918.585,VALID,0,VALID,95.7882,VALID,87.9943,VALID,20.2879,VALID,321,VALID,0,
2015-08-01, 07:58:04,VALID,918.621,VALID,0,VALID,96.0779,VALID,88.639,VALID,20.2879,VALID,350,VALID,0,
2015-08-01, 07:59:04,VALID,918.598,VALID,0,VALID,96.0703,VALID,89.1762,VALID,20.2684,VALID,350,VALID,0,
2015-08-01, 08:00:04,VALID,918.59,VALID,0,VALID,95.7425,VALID,89.6059,VALID,20.2684,VALID,350,VALID,0,
2015-08-01, 08:01:04,VALID,918.577,VALID,0,VALID,95.8416,VALID,90.0357,VALID,20.2684,VALID,350,VALID,0,
2015-08-01, 08:02:04,VALID,918.616,VALID,0,VALID,96.116,VALID,91.4324,VALID,20.2879,VALID,350,VALID,0,
2015-08-01, 08:03:04,VALID,918.648,VALID,0,VALID,96.3219,VALID,94.011,VALID,20.3074,VALID,350,VALID,0,
2015-08-01, 08:04:04,VALID,918.668,VALID,0,VALID,96.3905,VALID,98.3087,VALID,20.3269,VALID,350,VALID,0,
2015-08-01, 08:05:04,VALID,918.663,VALID,0,VALID,96.5658,VALID,104.218,VALID,20.3464,VALID,350,VALID,0,
2015-08-01, 08:06:04,VALID,918.734,VALID,0,VALID,96.8326,VALID,111.954,VALID,20.3643,VALID,350,VALID,0,
2015-08-01, 08:07:04,VALID,918.781,VALID,0,VALID,96.8021,VALID,121.946,VALID,20.4454,VALID,1,VALID,0,
2015-08-01, 08:08:04,VALID,918.777,VALID,0,VALID,97.1757,VALID,133.657,VALID,20.4618,VALID,1,VALID,0,
2015-08-01, 08:09:04,VALID,918.839,VALID,0,VALID,97.2214,VALID,145.905,VALID,20.5414,VALID,1,VALID,0,
2015-08-01, 08:10:04,VALID,918.877,VALID,0,VALID,97.2748,VALID,157.186,VALID,20.5999,VALID,1,VALID,0,
2015-08-01, 08:11:04,VALID,918.895,VALID,0,VALID,97.29,VALID,167.071,VALID,20.6374,VALID,2,VALID,0,
2015-08-01, 08:12:04,VALID,918.94,VALID,0,VALID,96.7564,VALID,176.203,VALID,20.6585,VALID,343,VALID,0,
2015-08-01, 08:13:04,VALID,918.921,VALID,0,VALID,95.9331,VALID,187.592,VALID,20.639,VALID,344,VALID,0,
2015-08-01, 08:14:04,VALID,918.922,VALID,0,VALID,96.2304,VALID,200.27,VALID,20.7154,VALID,356,VALID,0,
2015-08-01, 08:15:04,VALID,918.946,VALID,0,VALID,96.5429,VALID,210.585,VALID,20.8129,VALID,35,VALID,0,
2015-08-01, 08:16:04,VALID,918.959,VALID,0,VALID,96.2304,VALID,219.717,VALID,20.9316,VALID,9,VALID,0,
2015-08-01, 08:17:04,VALID,918.956,VALID,0,VALID,95.8035,VALID,216.172,VALID,21.008,VALID,22,VALID,0,
2015-08-01, 08:18:04,VALID,918.971,VALID,0,VALID,95.4985,VALID,208.221,VALID,21.086,VALID,42,VALID,0,
2015-08-01, 08:19:04,VALID,918.992,VALID,0,VALID,95.8111,VALID,198.981,VALID,21.1445,VALID,14,VALID,0,
2015-08-01, 08:20:04,VALID,919.003,VALID,0,VALID,94.9039,VALID,195.328,VALID,21.1445,VALID,354,VALID,0.919531,
2015-08-01, 08:21:04,VALID,919.014,VALID,0,VALID,93.7985,VALID,194.468,VALID,21.1055,VALID,337,VALID,0,
2015-08-01, 08:22:04,VALID,919.046,VALID,0,VALID,89.8877,VALID,202.527,VALID,21.008,VALID,40,VALID,0,
2015-08-01, 08:23:04,VALID,919.062,VALID,0,VALID,90.1088,VALID,248.404,VALID,20.891,VALID,10,VALID,0,
2015-08-01, 08:24:04,VALID,919.083,VALID,0,VALID,93.9662,VALID,270,VALID,20.8714,VALID,10,VALID,0,
2015-08-01, 08:25:04,VALID,919.068,VALID,0,VALID,95.3156,VALID,297.29,VALID,20.9105,VALID,12,VALID,0,
2015-08-01, 08:26:04,VALID,919.089,VALID,0,VALID,91.4734,VALID,327.266,VALID,20.9885,VALID,7,VALID,0.274609,
2015-08-01, 08:27:04,VALID,919.102,VALID,0,VALID,92.3501,VALID,350.258,VALID,21.0665,VALID,359,VALID,0,
2015-08-01, 08:28:04,VALID,919.131,VALID,0,VALID,90.7263,VALID,375.292,VALID,21.1429,VALID,352,VALID,0,
2015-08-01, 08:29:04,VALID,919.099,VALID,0,VALID,88.3706,VALID,369.383,VALID,21.26,VALID,16,VALID,0,
2015-08-01, 08:30:04,VALID,919.104,VALID,0,VALID,86.5791,VALID,285.471,VALID,21.3591,VALID,355,VALID,0,
2015-08-01, 08:31:04,VALID,919.123,VALID,0,VALID,85.7634,VALID,228.635,VALID,21.3965,VALID,10,VALID,0,
2015-08-01, 08:32:04,VALID,919.135,VALID,0,VALID,85.7101,VALID,234.437,VALID,21.4372,VALID,42,VALID,0,
2015-08-01, 08:33:05,VALID,919.18,VALID,0,VALID,86.198,VALID,260.222,VALID,21.5168,VALID,360,VALID,0,
2015-08-01, 08:34:05,VALID,919.17,VALID,0,VALID,85.3289,VALID,251.52,VALID,21.5754,VALID,15,VALID,0,
2015-08-01, 08:35:05,VALID,919.18,VALID,0,VALID,85.245,VALID,203.064,VALID,21.5559,VALID,60,VALID,0,
2015-08-01, 08:36:05,VALID,919.209,VALID,0,VALID,86.015,VALID,177.6,VALID,21.4567,VALID,52,VALID,0,
2015-08-01, 08:37:05,VALID,919.22,VALID,0,VALID,86.2742,VALID,181.361,VALID,21.3981,VALID,17,VALID,0,
2015-08-01, 08:38:05,VALID,919.188,VALID,0,VALID,86.5486,VALID,182.972,VALID,21.3786,VALID,63,VALID,0,
2015-08-01, 08:39:05,VALID,919.266,VALID,0,VALID,85.9464,VALID,209.51,VALID,21.2811,VALID,76,VALID,0,
2015-08-01, 08:40:05,VALID,919.244,VALID,0,VALID,86.6096,VALID,269.355,VALID,21.2421,VALID,90,VALID,0,
2015-08-01, 08:41:05,VALID,919.235,VALID,0,VALID,86.4419,VALID,229.172,VALID,21.2421,VALID,54,VALID,0,
2015-08-01, 08:42:05,VALID,919.262,VALID,0,VALID,86.5105,VALID,226.916,VALID,21.3006,VALID,47,VALID,0,
2015-08-01, 08:43:05,VALID,919.247,VALID,0,VALID,85.3975,VALID,251.842,VALID,21.3396,VALID,42,VALID,0,
2015-08-01, 08:44:05,VALID,919.276,VALID,0,VALID,85.4509,VALID,254.313,VALID,21.3575,VALID,33,VALID,0,
2015-08-01, 08:45:05,VALID,919.261,VALID,0,VALID,85.6186,VALID,196.51,VALID,21.4762,VALID,21,VALID,0,
2015-08-01, 08:46:05,VALID,919.27,VALID,0,VALID,85.6872,VALID,203.386,VALID,21.4762,VALID,25,VALID,0,
2015-08-01, 08:47:05,VALID,919.262,VALID,0,VALID,85.2069,VALID,179.749,VALID,21.4957,VALID,25,VALID,0,
2015-08-01, 08:48:05,VALID,919.279,VALID,0,VALID,85.4661,VALID,263.338,VALID,21.5136,VALID,37,VALID,0,
2015-08-01, 08:49:05,VALID,919.297,VALID,0,VALID,86.785,VALID,224.982,VALID,21.5526,VALID,40,VALID,0,
2015-08-01, 08:50:05,VALID,919.321,VALID,0,VALID,87.3491,VALID,186.088,VALID,21.6306,VALID,63,VALID,0,
2015-08-01, 08:51:05,VALID,919.337,VALID,0,VALID,86.2818,VALID,182.113,VALID,21.7298,VALID,62,VALID,0,
2015-08-01, 08:52:05,VALID,919.352,VALID,0,VALID,86.076,VALID,183.509,VALID,21.7298,VALID,60,VALID,0,
2015-08-01, 08:53:05,VALID,919.355,VALID,0,VALID,85.5957,VALID,186.84,VALID,21.6696,VALID,62,VALID,0,
2015-08-01, 08:54:05,VALID,919.369,VALID,0,VALID,85.1536,VALID,212.948,VALID,21.6306,VALID,57,VALID,0,
2015-08-01, 08:55:05,VALID,919.378,VALID,0,VALID,85.306,VALID,335.216,VALID,21.7282,VALID,46,VALID,0,
2015-08-01, 08:56:05,VALID,919.418,VALID,0,VALID,83.1257,VALID,249.693,VALID,21.8257,VALID,46,VALID,0,
2015-08-01, 08:57:05,VALID,919.417,VALID,0,VALID,82.9351,VALID,193.502,VALID,22.0013,VALID,47,VALID,0,
2015-08-01, 08:58:05,VALID,919.411,VALID,0,VALID,82.9428,VALID,174.807,VALID,22.0598,VALID,142,VALID,0,
2015-08-01, 08:59:05,VALID,919.395,VALID,0,VALID,83.6746,VALID,163.848,VALID,22.0403,VALID,151,VALID,0,
2015-08-01, 09:00:05,VALID,919.392,VALID,0,VALID,82.0737,VALID,157.616,VALID,22.0191,VALID,153,VALID,0,
2015-08-01, 09:01:05,VALID,919.412,VALID,0,VALID,82.8055,VALID,158.153,VALID,22.0403,VALID,152,VALID,0,
2015-08-01, 09:02:05,VALID,919.429,VALID,0,VALID,83.1867,VALID,160.839,VALID,22.0598,VALID,152,VALID,0,
2015-08-01, 09:03:05,VALID,919.41,VALID,0,VALID,83.3544,VALID,169.005,VALID,22.0794,VALID,152,VALID,0,
2015-08-01, 09:04:05,VALID,919.426,VALID,0,VALID,84.0863,VALID,177.385,VALID,22.1574,VALID,152,VALID,0,
2015-08-01, 09:05:05,VALID,919.4,VALID,0,VALID,85.1078,VALID,200.808,VALID,22.1981,VALID,152,VALID,0,
2015-08-01, 09:06:05,VALID,919.422,VALID,0,VALID,83.4383,VALID,183.402,VALID,22.1786,VALID,149,VALID,0,
2015-08-01, 09:07:05,VALID,919.417,VALID,0,VALID,83.6136,VALID,181.576,VALID,22.1379,VALID,149,VALID,0,
2015-08-01, 09:08:05,VALID,919.46,VALID,0,VALID,83.9796,VALID,185.336,VALID,22.2176,VALID,149,VALID,0,
2015-08-01, 09:09:05,VALID,919.435,VALID,0,VALID,83.1257,VALID,189.849,VALID,22.255,VALID,123,VALID,0,
2015-08-01, 09:10:05,VALID,919.452,VALID,0,VALID,83.0495,VALID,194.683,VALID,22.255,VALID,100,VALID,0,
2015-08-01, 09:11:05,VALID,919.478,VALID,0,VALID,84.2845,VALID,192.427,VALID,22.3152,VALID,100,VALID,0,
2015-08-01, 09:12:05,VALID,919.487,VALID,0,VALID,83.5526,VALID,199.733,VALID,22.3525,VALID,45,VALID,0,
2015-08-01, 09:13:05,VALID,919.497,VALID,0,VALID,82.2795,VALID,207.147,VALID,22.294,VALID,36,VALID,0,
2015-08-01, 09:14:05,VALID,919.55,VALID,0,VALID,83.7204,VALID,216.279,VALID,22.2176,VALID,41,VALID,0,
2015-08-01, 09:15:05,VALID,919.534,VALID,0,VALID,84.6657,VALID,226.808,VALID,22.1769,VALID,30,VALID,0,
2015-08-01, 09:16:05,VALID,919.539,VALID,0,VALID,82.5997,VALID,245.933,VALID,22.1396,VALID,59,VALID,0,
2015-08-01, 09:17:05,VALID,919.564,VALID,0,VALID,82.5006,VALID,286.331,VALID,22.0972,VALID,41,VALID,0,
2015-08-01, 09:18:05,VALID,919.503,VALID,0,VALID,80.2669,VALID,238.842,VALID,22.0777,VALID,16,VALID,0,
2015-08-01, 09:19:05,VALID,919.53,VALID,0,VALID,81.6849,VALID,227.775,VALID,22.0777,VALID,30,VALID,0,
2015-08-01, 09:20:05,VALID,919.504,VALID,0,VALID,81.197,VALID,221.221,VALID,22.0777,VALID,36,VALID,0,
2015-08-01, 09:21:05,VALID,919.497,VALID,0,VALID,80.6405,VALID,216.816,VALID,22.0582,VALID,35,VALID,0,
2015-08-01, 09:22:05,VALID,919.5,VALID,0,VALID,82.7522,VALID,215.742,VALID,22.0403,VALID,44,VALID,0,
2015-08-01, 09:23:05,VALID,919.477,VALID,0,VALID,84.0482,VALID,209.94,VALID,22.0191,VALID,57,VALID,0,
2015-08-01, 09:24:05,VALID,919.478,VALID,0,VALID,83.9033,VALID,207.899,VALID,21.9996,VALID,64,VALID,0,
2015-08-01, 09:25:05,VALID,919.472,VALID,0,VALID,85.0011,VALID,208.328,VALID,22.0387,VALID,61,VALID,0,
2015-08-01, 09:26:05,VALID,919.451,VALID,0,VALID,83.667,VALID,207.576,VALID,22.1167,VALID,40,VALID,0,
2015-08-01, 09:27:05,VALID,919.46,VALID,0,VALID,82.5235,VALID,231.536,VALID,22.1947,VALID,41,VALID,0,
2015-08-01, 09:28:05,VALID,919.458,VALID,0,VALID,82.1423,VALID,222.188,VALID,22.3135,VALID,17,VALID,0,
2015-08-01, 09:29:05,VALID,919.433,VALID,0,VALID,81.9136,VALID,225.197,VALID,22.4306,VALID,19,VALID,0,
2015-08-01, 09:30:05,VALID,919.428,VALID,0,VALID,79.3598,VALID,235.941,VALID,22.4501,VALID,25,VALID,0,
2015-08-01, 09:31:05,VALID,919.433,VALID,0,VALID,79.9086,VALID,237.66,VALID,22.4501,VALID,36,VALID,0,
2015-08-01, 09:32:05,VALID,919.411,VALID,0,VALID,79.619,VALID,231.643,VALID,22.5086,VALID,36,VALID,0,
2015-08-01, 09:33:05,VALID,919.402,VALID,0,VALID,79.9086,VALID,231.858,VALID,22.6257,VALID,49,VALID,0,
2015-08-01, 09:34:05,VALID,919.39,VALID,0,VALID,78.1705,VALID,232.073,VALID,22.6647,VALID,54,VALID,0,
2015-08-01, 09:35:05,VALID,919.38,VALID,0,VALID,77.5378,VALID,256.355,VALID,22.6825,VALID,54,VALID,0,
2015-08-01, 09:36:05,VALID,919.371,VALID,0,VALID,77.7665,VALID,212.196,VALID,22.7818,VALID,54,VALID,0,
2015-08-01, 09:37:05,VALID,919.371,VALID,0,VALID,77.8351,VALID,206.394,VALID,22.8599,VALID,59,VALID,0,
2015-08-01, 09:38:05,VALID,919.359,VALID,0,VALID,72.8799,VALID,231.965,VALID,22.8599,VALID,63,VALID,0,
2015-08-01, 09:39:05,VALID,919.329,VALID,0,VALID,76.2265,VALID,330.919,VALID,22.8989,VALID,63,VALID,0,
2015-08-01, 09:40:05,VALID,919.322,VALID,0,VALID,79.0548,VALID,321.034,VALID,23.0551,VALID,63,VALID,0,
2015-08-01, 09:41:05,VALID,919.37,VALID,0,VALID,78.2315,VALID,597.158,VALID,23.1331,VALID,165,VALID,0,
2015-08-01, 09:42:05,VALID,919.365,VALID,0,VALID,76.4095,VALID,572.661,VALID,23.2307,VALID,167,VALID,0,
2015-08-01, 09:43:05,VALID,919.353,VALID,0,VALID,75.0449,VALID,576.852,VALID,23.4046,VALID,168,VALID,0,
2015-08-01, 09:44:05,VALID,919.349,VALID,0,VALID,74.9992,VALID,575.777,VALID,23.504,VALID,167,VALID,0,
2015-08-01, 09:45:05,VALID,919.347,VALID,0,VALID,74.5341,VALID,570.727,VALID,23.7773,VALID,167,VALID,0,
2015-08-01, 09:46:05,VALID,919.34,VALID,0,VALID,73.6346,VALID,567.719,VALID,23.992,VALID,154,VALID,0,
2015-08-01, 09:47:05,VALID,919.317,VALID,0,VALID,74.214,VALID,569.868,VALID,24.0488,VALID,145,VALID,0,
2015-08-01, 09:48:05,VALID,919.295,VALID,0,VALID,71.6754,VALID,567.934,VALID,24.0115,VALID,130,VALID,0,
2015-08-01, 09:49:05,VALID,919.276,VALID,0,VALID,73.2,VALID,565.033,VALID,24.0683,VALID,50,VALID,0,
2015-08-01, 09:50:05,VALID,919.274,VALID,0,VALID,74.2444,VALID,567.934,VALID,24.3026,VALID,135,VALID,0,
2015-08-01, 09:51:05,VALID,919.236,VALID,0,VALID,72.4453,VALID,572.446,VALID,24.3221,VALID,149,VALID,0,
2015-08-01, 09:52:05,VALID,919.213,VALID,0,VALID,71.7592,VALID,578.141,VALID,24.3611,VALID,190,VALID,0,
2015-08-01, 09:53:05,VALID,919.193,VALID,0,VALID,71.1798,VALID,577.496,VALID,24.4392,VALID,189,VALID,0.00390625,
2015-08-01, 09:54:05,VALID,919.185,VALID,0,VALID,70.1049,VALID,579.967,VALID,24.574,VALID,222,VALID,0,
2015-08-01, 09:55:05,VALID,919.202,VALID,0,VALID,72.6283,VALID,582.653,VALID,24.4959,VALID,210,VALID,0,
2015-08-01, 09:56:05,VALID,919.186,VALID,0,VALID,70.9664,VALID,584.587,VALID,24.5954,VALID,196,VALID,0,
2015-08-01, 09:57:05,VALID,919.191,VALID,0,VALID,70.509,VALID,587.596,VALID,24.6521,VALID,214,VALID,0,
2015-08-01, 09:58:05,VALID,919.205,VALID,0,VALID,71.7897,VALID,590.389,VALID,24.7516,VALID,182,VALID,0,
2015-08-01, 09:59:05,VALID,919.173,VALID,0,VALID,70.8749,VALID,591.141,VALID,24.6149,VALID,137,VALID,0,
2015-08-01, 10:00:05,VALID,919.182,VALID,0,VALID,73.0552,VALID,596.083,VALID,24.7107,VALID,137,VALID,0,
2015-08-01, 10:01:05,VALID,919.175,VALID,0,VALID,71.0579,VALID,598.877,VALID,24.7888,VALID,191,VALID,0.14375,
2015-08-01, 10:02:05,VALID,919.153,VALID,0,VALID,71.1112,VALID,598.662,VALID,24.8688,VALID,219,VALID,0,
2015-08-01, 10:03:05,VALID,919.146,VALID,0,VALID,70.5014,VALID,598.662,VALID,24.6345,VALID,162,VALID,0.172656,
2015-08-01, 10:04:05,VALID,919.13,VALID,0,VALID,72.2319,VALID,595.117,VALID,24.6149,VALID,173,VALID,0,
2015-08-01, 10:05:05,VALID,919.137,VALID,0,VALID,71.5076,VALID,604.786,VALID,24.5564,VALID,164,VALID,0.0195313,
2015-08-01, 10:06:05,VALID,919.116,VALID,0,VALID,74.0539,VALID,613.704,VALID,24.5954,VALID,78,VALID,0.00273437,
2015-08-01, 10:07:05,VALID,919.09,VALID,0,VALID,71.1646,VALID,608.332,VALID,24.7711,VALID,171,VALID,0,
2015-08-01, 10:08:05,VALID,919.046,VALID,0,VALID,72.0108,VALID,616.927,VALID,24.8864,VALID,211,VALID,0,
2015-08-01, 10:09:05,VALID,919.088,VALID,0,VALID,73.2305,VALID,614.778,VALID,25.0836,VALID,161,VALID,0,
2015-08-01, 10:10:05,VALID,919.057,VALID,0,VALID,70.9359,VALID,611.34,VALID,25.1226,VALID,177,VALID,0,
2015-08-01, 10:11:05,VALID,919.042,VALID,0,VALID,69.9525,VALID,618.216,VALID,25.2965,VALID,149,VALID,0.171875,
2015-08-01, 10:12:05,VALID,919.04,VALID,0,VALID,69.2969,VALID,624.448,VALID,25.3374,VALID,166,VALID,0.308594,
2015-08-01, 10:13:05,VALID,919.051,VALID,0,VALID,70.0744,VALID,629.498,VALID,25.355,VALID,165,VALID,0,
2015-08-01, 10:14:05,VALID,919.047,VALID,0,VALID,70.1507,VALID,631.754,VALID,25.316,VALID,120,VALID,0,
2015-08-01, 10:15:05,VALID,919.037,VALID,0,VALID,69.8076,VALID,638.63,VALID,25.316,VALID,97,VALID,0,
2015-08-01, 10:16:05,VALID,919.009,VALID,0,VALID,71.0121,VALID,636.052,VALID,25.4917,VALID,132,VALID,0,
2015-08-01, 10:17:05,VALID,919.06,VALID,0,VALID,69.9677,VALID,641.531,VALID,25.5894,VALID,85,VALID,0,
2015-08-01, 10:18:05,VALID,919.037,VALID,0,VALID,67.4977,VALID,641.316,VALID,25.4722,VALID,140,VALID,0,
2015-08-01, 10:19:05,VALID,919.06,VALID,0,VALID,71.1112,VALID,644.969,VALID,25.5113,VALID,92,VALID,0,
2015-08-01, 10:20:05,VALID,919.073,VALID,0,VALID,70.4785,VALID,644.754,VALID,25.5698,VALID,109,VALID,0.458203,
2015-08-01, 10:21:05,VALID,919.018,VALID,0,VALID,71.2179,VALID,659.796,VALID,25.4527,VALID,117,VALID,0,
2015-08-01, 10:22:05,VALID,919.049,VALID,0,VALID,68.7022,VALID,654.317,VALID,25.5113,VALID,116,VALID,1.60078,
2015-08-01, 10:23:05,VALID,918.997,VALID,0,VALID,68.2372,VALID,659.259,VALID,25.4722,VALID,113,VALID,0,
2015-08-01, 10:24:05,VALID,918.994,VALID,0,VALID,71.5458,VALID,652.06,VALID,25.5113,VALID,83,VALID,0.192969,
2015-08-01, 10:25:05,VALID,918.971,VALID,0,VALID,70.204,VALID,657.755,VALID,25.4703,VALID,87,VALID,0.481641,
2015-08-01, 10:26:05,VALID,918.954,VALID,0,VALID,72.2852,VALID,669.251,VALID,25.3746,VALID,97,VALID,1.09922,
2015-08-01, 10:27:05,VALID,919,VALID,0,VALID,68.0009,VALID,689.557,VALID,25.3355,VALID,110,VALID,0.362109,
2015-08-01, 10:28:05,VALID,918.999,VALID,0,VALID,69.1825,VALID,169.65,VALID,25.4117,VALID,69,VALID,0,
2015-08-01, 10:29:05,VALID,918.962,VALID,0,VALID,68.6031,VALID,694.607,VALID,25.5503,VALID,124,VALID,0.23125,
2015-08-01, 10:30:05,VALID,918.952,VALID,0,VALID,68.9309,VALID,684.293,VALID,25.5874,VALID,46,VALID,0.826953,
2015-08-01, 10:31:05,VALID,918.948,VALID,0,VALID,69.091,VALID,665.061,VALID,25.6089,VALID,49,VALID,1.28828,
2015-08-01, 10:32:05,VALID,918.967,VALID,0,VALID,65.2031,VALID,676.772,VALID,25.4527,VALID,140,VALID,0.240234,
2015-08-01, 10:33:05,VALID,918.938,VALID,0,VALID,66.2399,VALID,678.706,VALID,25.4741,VALID,139,VALID,0,
2015-08-01, 10:34:05,VALID,918.94,VALID,0,VALID,65.8282,VALID,681.392,VALID,25.7066,VALID,143,VALID,0,
2015-08-01, 10:35:05,VALID,918.957,VALID,0,VALID,68.0619,VALID,658.185,VALID,25.9995,VALID,92,VALID,0,
2015-08-01, 10:36:05,VALID,918.912,VALID,0,VALID,66.8192,VALID,633.903,VALID,26.2945,VALID,67,VALID,0,
2015-08-01, 10:37:05,VALID,918.938,VALID,0,VALID,64.2654,VALID,650.449,VALID,26.566,VALID,75,VALID,0,
2015-08-01, 10:38:05,VALID,918.947,VALID,0,VALID,61.5667,VALID,627.456,VALID,26.5464,VALID,164,VALID,0.498047,
2015-08-01, 10:39:05,VALID,918.937,VALID,0,VALID,61.2923,VALID,632.184,VALID,26.3706,VALID,184,VALID,0.390625,
2015-08-01, 10:40:05,VALID,918.898,VALID,0,VALID,62.5654,VALID,673.334,VALID,26.4117,VALID,163,VALID,0.173828,
2015-08-01, 10:41:05,VALID,918.9,VALID,0,VALID,64.6923,VALID,667.102,VALID,26.4292,VALID,116,VALID,0.00117188,
2015-08-01, 10:42:05,VALID,918.899,VALID,0,VALID,64.5398,VALID,663.019,VALID,26.3706,VALID,125,VALID,0.240625,
2015-08-01, 10:43:05,VALID,918.857,VALID,0,VALID,62.0699,VALID,709.326,VALID,26.31,VALID,139,VALID,0.908203,
2015-08-01, 10:44:05,VALID,918.881,VALID,0,VALID,62.8856,VALID,679.458,VALID,26.1948,VALID,159,VALID,0.542969,
2015-08-01, 10:45:05,VALID,918.85,VALID,0,VALID,63.5412,VALID,696.863,VALID,26.1753,VALID,153,VALID,0,
2015-08-01, 10:46:05,VALID,918.855,VALID,0,VALID,64.6999,VALID,686.334,VALID,26.3902,VALID,54,VALID,1.27969,
2015-08-01, 10:47:05,VALID,918.839,VALID,0,VALID,64.3797,VALID,703.525,VALID,26.5074,VALID,36,VALID,0.0238281,
2015-08-01, 10:48:05,VALID,918.81,VALID,0,VALID,63.3353,VALID,731.889,VALID,26.5054,VALID,36,VALID,2.85039,
2015-08-01, 10:49:05,VALID,918.839,VALID,0,VALID,64.5932,VALID,722.542,VALID,26.5074,VALID,72,VALID,0.0882813,
2015-08-01, 10:50:05,VALID,918.845,VALID,0,VALID,64.7762,VALID,720.393,VALID,26.3316,VALID,70,VALID,1.18203,
2015-08-01, 10:51:05,VALID,918.842,VALID,0,VALID,66.2932,VALID,739.088,VALID,26.3511,VALID,61,VALID,0.0078125,
2015-08-01, 10:52:05,VALID,918.878,VALID,0,VALID,63.686,VALID,754.237,VALID,26.566,VALID,50,VALID,0.189063,
2015-08-01, 10:53:05,VALID,918.861,VALID,0,VALID,63.6327,VALID,751.551,VALID,26.7223,VALID,56,VALID,0.981641,
2015-08-01, 10:54:05,VALID,918.964,VALID,0,VALID,63.8309,VALID,773.899,VALID,26.6226,VALID,52,VALID,2.66367,
2015-08-01, 10:55:05,VALID,918.952,VALID,0,VALID,65.0659,VALID,798.61,VALID,26.5054,VALID,41,VALID,1.98086,
2015-08-01, 10:56:05,VALID,918.987,VALID,0,VALID,62.0241,VALID,798.718,VALID,26.4272,VALID,68,VALID,1.18008,
2015-08-01, 10:57:05,VALID,918.989,VALID,0,VALID,60.7815,VALID,793.453,VALID,26.4663,VALID,52,VALID,0.628125,
2015-08-01, 10:58:05,VALID,919.021,VALID,0,VALID,65.8587,VALID,790.982,VALID,26.564,VALID,47,VALID,2.88984,
2015-08-01, 10:59:05,VALID,919.026,VALID,0,VALID,60.8806,VALID,771.75,VALID,26.6226,VALID,66,VALID,2.35508,
2015-08-01, 11:00:05,VALID,919.035,VALID,0,VALID,57.9151,VALID,768.419,VALID,26.6616,VALID,183,VALID,1.35859,
2015-08-01, 11:01:05,VALID,919.04,VALID,0,VALID,58.0447,VALID,771.535,VALID,26.7984,VALID,103,VALID,0.646484,
2015-08-01, 11:02:05,VALID,919.043,VALID,0,VALID,56.5962,VALID,746.931,VALID,26.7007,VALID,115,VALID,3.25469,
2015-08-01, 11:03:05,VALID,919.026,VALID,0,VALID,61.9936,VALID,630.465,VALID,26.6441,VALID,111,VALID,1.54336,
2015-08-01, 11:04:05,VALID,919.03,VALID,0,VALID,56.9774,VALID,680.855,VALID,26.6226,VALID,142,VALID,1.01641,
2015-08-01, 11:05:05,VALID,918.999,VALID,0,VALID,60.8196,VALID,650.449,VALID,26.6421,VALID,53,VALID,2.21094,
2015-08-01, 11:06:05,VALID,918.991,VALID,0,VALID,59.5465,VALID,735.542,VALID,26.7398,VALID,119,VALID,0.883594,
2015-08-01, 11:07:05,VALID,918.974,VALID,0,VALID,58.4487,VALID,719.211,VALID,26.7398,VALID,125,VALID,0.0148437,
2015-08-01, 11:08:05,VALID,918.987,VALID,0,VALID,59.3559,VALID,688.698,VALID,26.6616,VALID,127,VALID,2.21797,
2015-08-01, 11:09:05,VALID,918.915,VALID,0,VALID,56.0931,VALID,660.656,VALID,26.603,VALID,156,VALID,0.473047,
2015-08-01, 11:10:05,VALID,918.938,VALID,0,VALID,59.0891,VALID,688.805,VALID,26.603,VALID,124,VALID,1.44922,
2015-08-01, 11:11:05,VALID,918.928,VALID,0,VALID,54.3321,VALID,726.839,VALID,26.6421,VALID,87,VALID,2.52891,
2015-08-01, 11:12:05,VALID,918.924,VALID,0,VALID,56.8554,VALID,775.94,VALID,26.5249,VALID,92,VALID,1.26758,
2015-08-01, 11:13:05,VALID,918.916,VALID,0,VALID,56.4819,VALID,622.407,VALID,26.6226,VALID,133,VALID,0.0417969,
2015-08-01, 11:14:05,VALID,918.91,VALID,0,VALID,58.5021,VALID,412.574,VALID,26.896,VALID,102,VALID,0.241797,
2015-08-01, 11:15:04,VALID,918.933,VALID,0,VALID,54.4922,VALID,460.923,VALID,26.9351,VALID,115,VALID,2.59063,
2015-08-01, 11:16:04,VALID,918.939,VALID,0,VALID,58.3115,VALID,829.553,VALID,26.6812,VALID,127,VALID,0.405078,
2015-08-01, 11:17:04,VALID,918.915,VALID,0,VALID,57.9227,VALID,804.519,VALID,26.7788,VALID,87,VALID,0,